Showing default

IRIDIUM 148, 43255

Orbit data source: Space-Track

IRIDIUM 148, 43255 is a payload satellite owned by Iridium (US) in LEO that was launched on Fri, 30 Mar 2018 UTC via an FALCON 9 launch vehicle from the Air Force Western Test Range (AFWTR). Payload-class satellites include a variety of spacecraft equipped with specific instruments for various scientific and technological missions. These include communications satellites like Starlink; space stations such as the ISS; scientific satellites like the Hubble; Earth observation satellites from companies like Planet Labs, Umbra, and HawkEye 360; GPS; miniature CubeSats for education and research; and military/defense satellites.

Loading next visibility...
Identifier
43255, 2018-030G
Orbit
LEO
Country
Flag of USUS
Related business
Manufacturer
OATK SSG Gilbert
Mission
Operational Commercial Communications
Bus & Motor
ELITEBUS, Unknown motor
Mass
860 kg wet, 700 kg dry
Launch date (UTC)
2018-03-30 (8 years ago)
Launch vehicle
FALCON 9
Launch site
Air Force Western Test Range (AFWTR)
Object type
Payload
Rocket body
Debris
Shape & HBR
Trap Box + 2 Pan, 4.8 m
Radar Cross Section
10.154 m², Large (>1 m²)

Expand to show TLE details & history
Last TLE update: 2 days ago

TLE from 2 days ago
0 IRIDIUM 148
1 43255U 18030G   25306.32434406  .00000122  00000-0  36443-4 0  9992
2 43255  86.4008  25.2906 0002182 100.3321 259.8120 14.34217811397653
Epoch: 2025-11-02T07:47Z
TLE epoch observation values (Epoch: 2025-11-02T07:47:03.326Z)
Latitude
-0.00013°
Longitude
-133.31497°
Altitude
780.995 km
Speed
7.463 km/s
True Right ascension
01h 41m 09s
True Declination
0° 00' 00"
Sunlit
Object was in full shadow at epoch
Visualization orbit readout
Latitude
Unknown
Longitude
Unknown
Altitude
Unknown
Speed
Unknown
Apparent Right ascension
Unknown
Apparent Declination
Unknown
Sunlit
N/A
Visualization observer readout
Local Sidereal Time
00:35:40
Azimuth
Unknown
Elevation
Unknown
Doppler factor
Unknown
Orbital elements
Apogee altitude
776.192 km
Perigee altitude
773.071 km
Semi-major axis
7,152.768 km
Eccentricity
0.00022
Inclination
86.4008°
RAAN
25.2906°
Arg. of periapsis
100.3321°
True anomaly
259.78739°
Mean anomaly
259.812°
Eccentric anomaly
259.7997°
Mean motion
3.58783 °/min
Orbital period
100.34 mins
BSTAR
0.000036443
Loading maneuver chart data...
Computing Atmospheric mass density...
Loading historical data...
Loading historical data...
Loading historical data...
Loading historical data...
Loading historical data...
Loading historical data...
Loading historical data...

Documentation

Showing up to 5 results
|